Back to catalog

COSMOS 1878

AliveNavigationPO
NORAD 18337·PAYLOAD·🇷🇺 Russia

Launched Sep 7, 1987 from Plesetsk Cosmodrome

Loading…

Next Passes (next 24 hours)

TLE

FreshSource: Space-Track

Epoch: Sep 14, 2026, 21:48 UTC

1 18337U 87074D   26257.90861653  .00000009  00000-0 -94126-5 0  9995
2 18337  82.5664 235.1355 0003951  41.6869 333.4287 12.64388489800631

Track COSMOS 1878 in real time with AllMySat

Download on the App Store